| time (UTC) | temp F | wind direction | speed knots | gust knots | rain 1hr in | rain 24hr in | rain mn in | humidity % | barometer mb |
| 20260508203047 | 50 | 22 | 7.0 | 14.8 | 0.00 | 0.24 | 0.01 | 74 | 1000.9 |
| 20260508201540 | 49 | 58 | 4.3 | 10.4 | 0.00 | 0.24 | 0.01 | 73 | 1001.2 |
| 20260508200038 | 51 | 71 | 7.0 | 11.3 | 0.00 | 0.61 | 0.01 | 73 | 1001.0 |
| 20260508194537 | 49 | 67 | 5.2 | 8.7 | 0.00 | 0.61 | 0.01 | 75 | 1001.1 |
| 20260508193042 | 50 | 55 | 5.2 | 9.6 | 0.00 | 0.61 | 0.01 | 74 | 1000.7 |
| 20260508191539 | 49 | 83 | 7.8 | 16.5 | 0.00 | 0.61 | 0.01 | 76 | 1000.7 |
| 20260508190042 | 48 | 53 | 7.0 | 16.5 | 0.00 | 0.84 | 0.01 | 79 | 1000.6 |
| 20260508184535 | 48 | 55 | 7.0 | 15.6 | 0.00 | 0.84 | 0.01 | 81 | 1000.7 |
| 20260508183033 | 47 | 45 | 8.7 | 14.8 | 0.00 | 0.84 | 0.01 | 80 | 1000.9 |
| 20260508181532 | 49 | 62 | 6.1 | 10.4 | 0.00 | 0.84 | 0.01 | 80 | 1000.9 |
| 20260508180032 | 49 | 85 | 7.8 | 14.8 | 0.00 | 0.84 | 0.01 | 79 | 1000.8 |
| 20260508174553 | 50 | 67 | 9.6 | 13.0 | 0.00 | 0.84 | 0.01 | 78 | 1000.7 |
| 20260508173032 | 50 | 57 | 6.1 | 12.2 | 0.00 | 0.84 | 0.01 | 78 | 1001.0 |
| 20260508171528 | 51 | 58 | 7.0 | 13.9 | 0.01 | 0.84 | 0.01 | 79 | 1001.3 |
| 20260508170032 | 49 | 73 | 8.7 | 14.8 | 0.01 | 0.84 | 0.01 | 80 | 1001.3 |
| 20260508164526 | 50 | 76 | 6.1 | 12.2 | 0.01 | 0.84 | 0.01 | 80 | 1001.2 |
| 20260508163039 | 48 | 29 | 6.1 | 11.3 | 0.01 | 0.84 | 0.01 | 83 | 1001.2 |
| 20260508161525 | 48 | 49 | 7.8 | 14.8 | 0.00 | 0.83 | 0.00 | 82 | 1001.3 |
| 20260508160026 | 49 | 41 | 7.8 | 12.2 | 0.00 | 0.83 | 0.00 | 81 | 1001.4 |
| 20260508154524 | 50 | 73 | 7.0 | 12.2 | 0.00 | 0.83 | 0.00 | 83 | 1001.2 |
| 20260508153027 | 50 | 54 | 3.5 | 15.6 | 0.00 | 0.83 | 0.00 | 85 | 1001.3 |
| 20260508151528 | 51 | 74 | 5.2 | 13.9 | 0.00 | 0.83 | 0.00 | 86 | 1001.4 |
| 20260508150017 | 51 | 50 | 3.5 | 11.3 | 0.00 | 0.83 | 0.00 | 89 | 1001.7 |
| 20260508144515 | 50 | 61 | 6.1 | 11.3 | 0.00 | 0.83 | 0.00 | 93 | 1001.6 |
| 20260508143014 | 50 | 104 | 4.3 | 10.4 | 0.00 | 0.83 | 0.00 | 94 | 1001.9 |
| 20260508141514 | 49 | 58 | 6.1 | 11.3 | 0.00 | 0.83 | 0.00 | 95 | 1001.9 |
| 20260508140012 | 49 | 72 | 4.3 | 8.7 | 0.00 | 0.83 | 0.00 | 96 | 1002.2 |
| 20260508134509 | 49 | 107 | 3.5 | 7.0 | 0.00 | 0.83 | 0.00 | 98 | 1002.6 |
| 20260508133008 | 47 | 64 | 4.3 | 7.8 | 0.00 | 0.83 | 0.00 | 99 | 1002.4 |
| 20260508131507 | 46 | 58 | 3.5 | 8.7 | 0.00 | 0.83 | 0.00 | 100 | 1002.1 |
| 20260508130006 | 43 | 127 | 3.5 | 6.1 | 0.00 | 0.85 | 0.00 | 99 | 1002.2 |
| 20260508124506 | 44 | 135 | 1.7 | 4.3 | 0.00 | 0.85 | 0.00 | 100 | 1002.0 |
| 20260508123006 | 43 | 160 | 3.5 | 5.2 | 0.00 | 0.85 | 0.00 | 100 | 1002.0 |
| 20260508121506 | 43 | 152 | 1.7 | 3.5 | 0.00 | 0.85 | 0.00 | 100 | 1002.2 |
| 20260508120004 | 42 | 180 | 1.7 | 4.3 | 0.00 | 0.98 | 0.00 | 100 | 1002.3 |
| 20260508114503 | 43 | 93 | 1.7 | 2.6 | 0.00 | 0.98 | 0.00 | 100 | 1002.2 |
| 20260508113003 | 42 | 93 | 0.9 | 2.6 | 0.00 | 0.98 | 0.00 | 100 | 1002.0 |
| 20260508111502 | 41 | 161 | 0.0 | 0.0 | 0.00 | 0.98 | 0.00 | 100 | 1002.4 |
| 20260508110001 | 39 | 161 | 0.0 | 0.0 | 0.00 | 0.99 | 0.00 | 100 | 1002.5 |
| 20260508104605 | 39 | 161 | 0.0 | 0.0 | 0.00 | 0.99 | 0.00 | 100 | 1002.6 |
| 20260508103101 | 39 | 161 | 0.0 | 0.0 | 0.00 | 0.99 | 0.00 | 100 | 1002.5 |
| 20260508101602 | 39 | 162 | 0.0 | 2.6 | 0.00 | 0.99 | 0.00 | 100 | 1002.5 |
| 20260508100058 | 38 | 170 | 0.0 | 0.9 | 0.00 | 0.99 | 0.00 | 100 | 1002.3 |
| 20260508094558 | 37 | 170 | 0.0 | 0.9 | 0.00 | 0.99 | 0.00 | 100 | 1002.3 |
| 20260508093102 | 37 | 262 | 0.9 | 2.6 | 0.00 | 0.99 | 0.00 | 100 | 1002.0 |
| 20260508091556 | 37 | 262 | 0.0 | 0.0 | 0.00 | 0.99 | 0.00 | 100 | 1002.0 |
| 20260508090108 | 38 | 262 | 0.0 | 1.7 | 0.00 | 0.99 | 0.00 | 100 | 1002.0 |
| 20260508084551 | 38 | 262 | 0.9 | 1.7 | 0.00 | 0.99 | 0.00 | 100 | 1001.7 |
| 20260508083050 | 38 | 262 | 0.0 | 2.6 | 0.00 | 0.99 | 0.00 | 100 | 1001.4 |
| 20260508081558 | 38 | 310 | 1.7 | 4.3 | 0.00 | 0.99 | 0.00 | 100 | 1001.6 |
| 20260508080046 | 38 | 60 | 0.0 | 1.7 | 0.00 | 0.99 | 0.00 | 100 | 1001.4 |
| 20260508074645 | 38 | 60 | 0.0 | 1.7 | 0.00 | 0.99 | 0.00 | 100 | 1001.5 |
| 20260508073043 | 38 | 60 | 0.0 | 1.7 | 0.00 | 0.99 | 0.00 | 100 | 1001.5 |
| 20260508071544 | 38 | 60 | 0.0 | 1.7 | 0.00 | 0.99 | 0.00 | 99 | 1001.5 |
| 20260508070039 | 39 | 60 | 0.0 | 3.5 | 0.00 | 0.99 | 0.00 | 99 | 1001.5 |
| 20260508064537 | 40 | 58 | 0.9 | 2.6 | 0.00 | 0.99 | 0.00 | 100 | 1001.3 |
| 20260508063036 | 40 | 58 | 0.0 | 1.7 | 0.00 | 0.99 | 0.00 | 99 | 1001.6 |
| 20260508061534 | 40 | 58 | 0.9 | 6.1 | 0.00 | 0.99 | 0.00 | 99 | 1001.7 |
| 20260508060030 | 41 | 52 | 0.9 | 4.3 | 0.00 | 0.99 | 0.00 | 99 | 1001.6 |
| 20260508054528 | 42 | 51 | 1.7 | 4.3 | 0.00 | 0.99 | 0.00 | 99 | 1001.4 |
| 20260508053026 | 43 | 67 | 0.9 | 8.7 | 0.00 | 0.99 | 0.00 | 99 | 1001.5 |
| 20260508051523 | 44 | 54 | 4.3 | 7.0 | 0.00 | 0.99 | 0.00 | 99 | 1001.3 |
| 20260508050026 | 45 | 41 | 2.6 | 6.1 | 0.00 | 0.99 | 0.00 | 99 | 1001.4 |
| 20260508044521 | 45 | 40 | 3.5 | 7.8 | 0.00 | 0.99 | 0.00 | 100 | 1001.5 |
| 20260508043020 | 45 | 39 | 1.7 | 6.1 | 0.00 | 0.99 | 0.00 | 99 | 1001.5 |
| 20260508041519 | 44 | 67 | 2.6 | 6.1 | 0.00 | 0.99 | 0.00 | 99 | 1001.4 |
| 20260508040019 | 44 | 81 | 4.3 | 8.7 | 0.00 | 0.99 | 0.00 | 99 | 1001.4 |
| 20260508034518 | 45 | 53 | 0.0 | 6.1 | 0.00 | 0.99 | 0.00 | 99 | 1001.6 |
| 20260508033018 | 46 | 45 | 2.6 | 5.2 | 0.00 | 0.99 | 0.00 | 99 | 1001.5 |
| 20260508031508 | 47 | 79 | 6.1 | 7.8 | 0.00 | 0.99 | 0.00 | 99 | 1001.6 |
| 20260508030006 | 48 | 34 | 2.6 | 8.7 | 0.00 | 0.99 | 0.99 | 99 | 1001.5 |
| 20260508024505 | 49 | 5 | 1.7 | 4.3 | 0.00 | 0.99 | 0.99 | 100 | 1001.7 |
| 20260508023008 | 49 | 51 | 2.6 | 7.0 | 0.00 | 0.99 | 0.99 | 100 | 1001.3 |
| 20260508021503 | 48 | 49 | 0.0 | 6.1 | 0.00 | 0.99 | 0.99 | 100 | 1001.4 |
| 20260508020103 | 49 | 24 | 0.9 | 5.2 | 0.00 | 0.99 | 0.99 | 100 | 1001.3 |
| 20260508014505 | 49 | 152 | 2.6 | 6.1 | 0.00 | 0.99 | 0.99 | 100 | 1001.3 |
| 20260508013001 | 49 | 359 | 3.5 | 7.8 | 0.00 | 0.99 | 0.99 | 100 | 1001.0 |
| 20260508011502 | 51 | 129 | 4.3 | 9.6 | 0.00 | 0.99 | 0.99 | 100 | 1000.6 |
| 20260508010059 | 49 | 301 | 2.6 | 7.8 | 0.00 | 0.99 | 0.99 | 100 | 1000.7 |
| 20260508004600 | 48 | 250 | 0.9 | 2.6 | 0.00 | 0.99 | 0.99 | 100 | 1001.1 |
| 20260508003105 | 47 | 249 | 0.0 | 1.7 | 0.00 | 0.99 | 0.99 | 100 | 1001.3 |
| 20260508001556 | 46 | 249 | 0.0 | 1.7 | 0.00 | 0.99 | 0.99 | 100 | 1001.5 |
| 20260508000054 | 46 | 208 | 1.7 | 5.2 | 0.00 | 0.99 | 0.99 | 99 | 1001.5 |
| 20260507234554 | 48 | 212 | 1.7 | 4.3 | 0.00 | 0.99 | 0.99 | 99 | 1001.4 |
| 20260507233054 | 49 | 192 | 1.7 | 8.7 | 0.00 | 0.99 | 0.99 | 100 | 1001.5 |
| 20260507231558 | 49 | 189 | 0.9 | 3.5 | 0.00 | 0.99 | 0.99 | 99 | 1001.5 |
| 20260507230053 | 49 | 191 | 3.5 | 7.8 | 0.00 | 0.99 | 0.99 | 100 | 1001.4 |
| 20260507224600 | 47 | 175 | 4.3 | 7.8 | 0.00 | 0.99 | 0.99 | 99 | 1001.7 |
| 20260507223051 | 48 | 185 | 5.2 | 10.4 | 0.00 | 0.99 | 0.99 | 99 | 1001.5 |
| 20260507221550 | 49 | 200 | 3.5 | 8.7 | 0.00 | 0.99 | 0.99 | 99 | 1001.7 |
| 20260507220049 | 50 | 208 | 5.2 | 9.6 | 0.00 | 0.99 | 0.99 | 99 | 1002.0 |
| 20260507214549 | 50 | 210 | 3.5 | 8.7 | 0.02 | 0.99 | 0.99 | 99 | 1002.0 |
| 20260507213051 | 50 | 231 | 1.7 | 7.0 | 0.08 | 0.99 | 0.99 | 100 | 1001.7 |
| 20260507211551 | 46 | 228 | 0.9 | 3.5 | 0.15 | 0.99 | 0.99 | 99 | 1002.0 |
| 20260507210111 | 46 | 226 | 0.0 | 7.0 | 0.23 | 0.99 | 0.99 | 98 | 1001.7 |
| 20260507204550 | 46 | 175 | 1.7 | 5.2 | 0.30 | 0.98 | 0.98 | 98 | 1002.2 |